Погода в Ашхабаде

Поиск расширенной информации на нашем сайте:

Полезная информация:

Новости сайта



02.01.2020
Опубликован Долгосрочный прогноз погоды по городам России и ближнего зарубежья на январь 2020 года.
Карты: Прогноз на январь и февраль 2020 года, Сравнение прогнозируемой аномалии приземной температуры воздуха на январь 2020 года по разным моделям.




Погода в Ашхабаде - сегодня

Время (UTC), дата Ветер
(°,м/с) 
Видим.   Явления Облачность Т
(°С)
Тd
(°С)
f(%) Тe
(°С)
Pmin
(гПа)
dP
(гПа)
Po
(мм)
O2
(г/м3)
Тmin Tmax R s Состояние
почвы
09 16.01.21 060 (СВ) 10 км    3/0 средняя 
[Ac trans]
+13.4 +4.8 56 +14  1018.8  -0.6  745  286           
12 16.01.21 100 (В) 10 км    ясно 
+14.8 +5 52 +15  1017.7  -0.8  745  284           
15 16.01.21 140 (ЮВ) 10 км    ясно 
+9 +5 76 +10  1019.1  0.8  745  290    +15.2       
18 16.01.21 110 (В) 10 км    ясно 
+7.1 +5.1 87 +7  1018.3  -1  745  292    +15.2       
21 16.01.21 180 (Ю) 4000 м    ясно 
+6.1 +4.7 91 +6  1016.6  -1.7  743  292           
00 17.01.21 270 (З) 4000 м    ясно 
+3.4 +2.7 95 +4  1014.9  -2  742  295           
03 17.01.21 тихо ()   0050 м  туман  ?/?  
+2.2 +1.9 98 +2  1013.7  -1.2  741  296  +1        влажная 
06 17.01.21 нст () 0050 м  туман  ?/?  
+3.8 +3.6 99 +5  1011.6  -2.1  739  293  +1         
09 17.01.21 360 (С) 4000 м  дымка  9/4 1000 м средняя 
[Sc|Ac trans]
+7.2 +7 99 +7  1008.1  -3  737  288           
12 17.01.21 290 (З) 10 км    10/5 1500 м средняя, верхняя 
[Sc|Ac trans|Ci fib]
+9.2 +5 75 +9  1005.6  -2.2  735  286           
15 17.01.21 280 (З) 4000 м  дымка  10/10 900 м 
+7.8 +5.3 84 +8  1007.1  1.4  736  288    +9.4       
18 17.01.21 230 (ЮЗ) 4000 м  дымка  6/3 1500 м средняя, верхняя 
[Sc|Ac trans|Ci fib]
+7.4 +5.6 88 +7  1007  -0.2  736  288    +3.4       
21 17.01.21 280 (З) 2000 м  дымка  6/3 1500 м средняя, верхняя 
[Sc|Ac trans|Ci fib]
+7 +5.1 88 +6  1007  736  288           
00 18.01.21 260 (З) 4000 м    6/3 1500 м средняя 
[Sc|Ac trans]
+2.8 +2.3 97 +2  1007.6  0.2  736  293           
03 18.01.21 270 (З) 4000 м  дымка  ясно 
+2.6 +2.1 96 +2  1009.3  1.6  738  294  +2.6        влажная 
06 18.01.21 100 (В) 10 км    6/0 верхняя 
[Ci fib]
+9.2 +4.1 70 +10  1009.8  1.2  739  287  +2.6         
09 18.01.21 100 (В) 10 км    5/0 верхняя 
[Ci fib]
+14.4 +4.1 50 +15  1008.3  -1.1  738  282           
12 18.01.21 110 (В) 10 км    ясно 
+16 +4.3 46 +16  1008.6  0.5  738  280           
15 18.01.21 160 (Ю) 10 км    ясно 
+10.8 +4.1 63 +11  1010.7  1.6  739  286    +16.2       
18 18.01.21 160 (Ю) 4000 м    ясно <0100 м 
+8.6 +5.5 81 +9  1011.2  0.2  739  288    +16.2       
21 18.01.21 тихо ()   10 км    ясно 
+6 +2.1 76 +6  1011.5  739  291           
00 19.01.21 240 (ЮЗ) 10 км    ясно 
+5.2 +1.4 76 +5  1012.1  0.6  740  292           
03 19.01.21 160 (Ю) 10 км    ясно 
+5.4 +0.2 69 +5  1013.6  1.4  741  293  +4.6        влажная 
06 19.01.21 330 (СЗ) 10 км    4/3 1500 м средняя 
[Sc|Ac trans]
+14.2 +0.9 40 +13  1015.6  2.9  743  284  +4.6         
09 19.01.21 170 (Ю) 10 км    1/1 1500 м 
[Sc]
+17.4 +0.4 32 +18  1015.3  -0.1  743  281           
Время (UTC), дата Ветер
(°,м/с) 
Видим.   Явления Облачность Т
(°С)
Тd
(°С)
f(%) Тe
(°С)
Pmin
(гПа)
dP
(гПа)
Po
(мм)
O2
(г/м3)
Тmin Tmax R s Состояние
почвы

Для получения пояснительной информации подведите курсор к названию столбца.

ПОГОДА в Ашхабаде - архив

Всё, что Вы хотите узнать о погоде в Ашхабаде - удобно и подробно!

Выберите нужную дату (начиная с 1 января 2019* года) и нажмите кнопку "Найти".
Будут отображены архивные сводки погоды по пункту Ашхабад, начиная с указанной даты.


Отображать данные в формате CSV (для использования в таблицах Excel)


Внимание! Наш архив погоды предназначен исключительно для личного некоммерческого использования в познавательных целях. Если Вам необходимы официальные справки о состоянии погоды (для производственных, юридических, коммерческих и т.п. целей), обращайтесь в органы Росгидромета.

*Примечание: данная дата относится к архиву по метеостанциям СССР (Россия, СНГ, Балтия).
Архив по метеостанциям Зарубежной Европы и Азии (кроме Китая) хранится 10 дней, по другим регионам земного шара (Китай, Африка, Америка, Австралия, Океания) - 1 день.

Ашхабад - район местоположения метеостанции


Название, широта, долгота, высота метеостанции:
Ашхабад (город) 38°ш. 58.3°д. 208 м над ур. моря [Туркменистан]

Дополнительная информация

В oтличие oт бoльшинства пoгoдных сайтoв мы публикуем пoдрoбную метеoинфoрмацию в детальнoм прoфессиoнальнoм фoрмате.

Характеристики температуры и влажнoсти вoздуха измеряются на высoте 2 м в тени вдали oт зданий и деревьев.
Скoрoсть ветра измеряется на высoте 10 м (на урoвне рoста челoвека скoрoсть ветра ниже в 1.5-2 раза). Если метеoстанция нахoдится в гoрoде или в лесу, тo скoрoсть ветра занижена на 2-4 м/с пo сравнению с oткрытым местoм. Скoрoсть ветра над акватoриями крупных рек и oзёр, а также на вершинах хoлмoв на 2-5 м/с выше, чем в oбычных услoвиях.
Атмoсфернoе давление в разных тoчках местнoсти мoжет значительнo oтличаться oт давления на метеoстанции, в зависимoсти oт услoвий рельефа (при пoдъёме на 10 м давление пoнижается примернo на 1 мм рт.ст.).